Tracking 29967 objects as of 6-Dec-2024
HD Live streaming from Space Station
objects crossing your sky now

USA 160

Track USA 160 now!
10-day predictions
USA 160 is classified as:


NORAD ID: 26905
Int'l Code: 2001-040A
Perigee: 654.1 km
Apogee: 1,569.1 km
Inclination: 63.4 °
Period: 107.4 minutes
Semi major axis: 7482 km
RCS: Unknown
Launch date: September 8, 2001
Source: United States (US)
Launch site: AIR FORCE WESTERN TEST RANGE (AFWTR)
Your satellite tracking list
Your tracking list is empty




NASA's NSSDC Master Catalog

Two Line Element Set (TLE):
1 26905U 01040A   24329.69862402 0.00000800  00000-0  46931-3 0    01
2 26905  63.3877 274.8413 0611446   8.6628 351.3372 13.41290985    05
Source of the keplerian elements: McCants